FENGYUN 1C DEB, 30516

Orbit data source: Space-Track

FENGYUN 1C DEB, 30516 is space debris in SSO originally from a launch on Mon, 10 May 1999 UTC launched from the Taiyaun Space Center, China (TSC). Fengyun 1C debris stems from the Chinese weather satellite Fengyun-1C, which was intentionally destroyed by a Chinese anti-satellite missile in 2007. This event dramatically increased the amount of space debris, with thousands of trackable fragments posing hazards to satellites and human spaceflight. The Fengyun 1C debris cloud has become a focal point in discussions about space sustainability and the need for international regulations to prevent the creation of new debris.

Loading next visibility...
Identifier
30516, 1999-025AJE
Orbit
SSO
Country
Flag of CNCN / PRC
Related business
Manufacturer
Unknown
Mission
Spacecraft
Bus & Motor
Unknown
Mass
Unknown
Launch date (UTC)
1999-05-10 (27 years ago)
Launch vehicle
Unknown
Launch site
Taiyaun Space Center, China (TSC)
Object type
Payload
Rocket body
Debris
Shape & HBR
Unknown shape, 0.1 m
Radar Cross Section
Small (<0.1 m²)

Expand to show TLE details & history
Last TLE update: 10 hours ago

TLE from 10 hours ago
0 FENGYUN 1C DEB
1 30516U 99025AJE 26063.28488463  .00012238  00000-0  36744-2 0  9992
2 30516  98.8540 175.3421 0008088  78.9581 308.2623 14.42826025988908
Epoch: 2026-03-04T06:50Z
TLE epoch observation values (Epoch: 2026-03-04T06:50:14.032Z)
Latitude
26.83661°
Longitude
-93.76422°
Altitude
748.898 km
Speed
7.484 km/s
True Right ascension
11h 23m 23s
True Declination
26° 41' 53"
Sunlit
Object was in full shadow at epoch
Visualization orbit readout
Latitude
Unknown
Longitude
Unknown
Altitude
Unknown
Speed
Unknown
Apparent Right ascension
Unknown
Apparent Declination
Unknown
Sunlit
N/A
Visualization observer readout
Local Sidereal Time
20:24:48
Azimuth
Unknown
Elevation
Unknown
Doppler factor
Unknown
Orbital elements
Apogee altitude
752.074 km
Perigee altitude
740.549 km
Semi-major axis
7,124.449 km
Eccentricity
0.00081
Inclination
98.854°
RAAN
175.3421°
Arg. of periapsis
78.9581°
True anomaly
308.18948°
Mean anomaly
308.2623°
Eccentric anomaly
308.2259°
Mean motion
3.60924 °/min
Orbital period
99.74 mins
BSTAR
0.0036744
Loading maneuver chart data...
Computing Atmospheric mass density...

Documentation

Showing up to 5 results
|